TimeCDT,TemperatureF,Dew PointF,Humidity,Sea Level PressureIn,VisibilityMPH,Wind Direction,Wind SpeedMPH,Gust SpeedMPH,PrecipitationIn,Events,Conditions,WindDirDegrees,DateUTC
12:52 AM,46.4,35.6,66,29.79,10.0,SSW,16.1,-,N/A,,Clear,210,2012-10-13 05:52:00
1:52 AM,44.6,35.6,71,29.73,10.0,SSW,17.3,-,N/A,,Clear,200,2012-10-13 06:52:00
2:52 AM,46.9,37.0,68,29.73,10.0,SW,9.2,-,N/A,,Clear,220,2012-10-13 07:52:00
3:52 AM,48.0,37.0,66,29.69,10.0,WSW,6.9,-,N/A,,Clear,250,2012-10-13 08:52:00
4:52 AM,48.2,37.4,66,29.68,10.0,SW,6.9,-,N/A,,Clear,220,2012-10-13 09:52:00
5:52 AM,48.9,39.0,69,29.68,10.0,SW,8.1,-,N/A,,Partly Cloudy,230,2012-10-13 10:52:00
6:52 AM,46.9,37.9,71,29.69,10.0,Calm,Calm,-,N/A,,Clear,0,2012-10-13 11:52:00
7:52 AM,42.1,36.0,79,29.70,10.0,WSW,3.5,-,N/A,,Partly Cloudy,240,2012-10-13 12:52:00
8:52 AM,44.6,37.4,76,29.68,10.0,South,4.6,-,N/A,,Scattered Clouds,190,2012-10-13 13:52:00
9:52 AM,53.1,42.1,66,29.72,10.0,WSW,9.2,-,0.00,,Mostly Cloudy,250,2012-10-13 14:52:00
10:26 AM,53.6,41.0,62,29.71,10.0,NW,9.2,-,N/A,,Overcast,310,2012-10-13 15:26:00
10:52 AM,55.9,42.1,60,29.72,10.0,NNW,10.4,-,0.00,Rain,Light Rain,330,2012-10-13 15:52:00
11:52 AM,64.9,39.9,40,29.70,10.0,NW,9.2,-,0.00,,Partly Cloudy,320,2012-10-13 16:52:00
12:52 PM,68.0,37.4,33,29.69,10.0,NNW,21.9,27.6,N/A,,Partly Cloudy,330,2012-10-13 17:52:00
1:52 PM,72.0,36.0,27,29.67,10.0,NNW,13.8,25.3,N/A,,Clear,330,2012-10-13 18:52:00
2:52 PM,73.0,35.1,25,29.68,10.0,North,11.5,20.7,N/A,,Clear,360,2012-10-13 19:52:00
3:52 PM,71.1,34.0,26,29.69,10.0,North,12.7,24.2,N/A,,Clear,350,2012-10-13 20:52:00
4:52 PM,70.0,34.0,27,29.70,10.0,North,19.6,25.3,N/A,,Clear,350,2012-10-13 21:52:00
6:52 PM,69.8,33.8,27,29.76,10.0,North,18.4,27.6,N/A,,Scattered Clouds,360,2012-10-13 23:52:00
7:52 PM,66.0,32.0,28,29.80,10.0,North,11.5,-,N/A,,Mostly Cloudy,10,2012-10-14 00:52:00
8:52 PM,60.8,32.0,34,29.83,10.0,North,5.8,-,N/A,,Clear,360,2012-10-14 01:52:00
9:52 PM,55.9,32.0,40,29.85,10.0,North,3.5,-,N/A,,Clear,350,2012-10-14 02:52:00
10:52 PM,46.4,30.2,53,29.88,10.0,WNW,6.9,-,N/A,,Clear,300,2012-10-14 03:52:00
11:52 PM,50.0,30.2,47,29.92,10.0,NW,6.9,-,N/A,,Partly Cloudy,320,2012-10-14 04:52:00